Probability
0 0 0 0 0 0 0 0 0 0 0 0 0 0 0 0 0 0 0 0 0 0 0 0 0 0 0 0 0 0 0 0 0 0 0 0 0 0 0 0 0 0 0 0
0 0 0 0 0 0 0 0 0 0 0 0 0 0 0 0 0 0 0 0 0 0 0 0 0 0 0 0 0 0 0 0 0 0 0 0 0 0 0 0 0 0 0 0
0 0 0 0 0 0 0 0 0 0 0 0 0 0 0 0 0 0 0 0 0 0 0 0 0 0 0 0 0 0 0 0 0 0 0 0 0 0 0 0 0 0 0 0
0 0 0 0 0 0 0 0 0 0 0 0 0 0 0 0 0 0 0 0 0 0 0 0 0 0 0 0 0 0 0 0 0 0 0 0 0 0 0 0 0 0 0 0
0 0 0 0 0 0 0 0 0 0 0 0 0 0 0 0 0 0 0 0 0 0 0 0 0 0 0 0 0 0 0 0 0 0 0 0 0 0 0 0 0 0 0 0
0 0 0 0 0 0 0 0 0 0 0 0 0 0 0 0 0 0 0 0 0 0 0 0 0 0 0 0 0 0 0 0 0 0 0 0 0 0 0 0 0 0 0 0
0 0 0 0 0 0 0 0 0 0 0 0 0 0 0 0 0 0 0 0 0 0 0 0 0 0 0 0 0 0 0 0 0 0 0 0 0 0 0 0 0 0 0 0
0 0 0 0 0 0 0 0 0 0 0 0 0 0 0 0 0 0 0 0 0 0 0 0 0 0 0 0 0 0 0 0 0 0 0 0 0 0 0 0 0 0 0 0
0 0 0 0 0 0 0 0 0 0 0 0 0 0 0 0 0 0 0 0 0 0 0 0 0 0 0 0 0 0 0 0 0 0 0 0 0 0 0 0 0 0 0 0
0 0 0 0 0 0 0 0 0 0 0 0 0 0 0 0 0 0 0 0 0 0 0 0 0 0 0 0 0 0 0 0 0 0 0 0 0 0 0 0 0 0 0 0
0 0 0 0 0 0 0 0 0 0 0 0 0 0 0 0 0 0 0 0 0 0 0 0 0 0 0 0 0 0 0 0 0 0 0 0 0 0 0 0 0 0 0 0
0 0 0 0 0 0 0 0 0 0 0 0 0 0 0 0 0 0 0 0 0 0 0 0 0 0 0 0 0 0 0 0 0 0 0 0 0 0 0 0 0 0 0 0
0 0 0 0 0 0 0 0 0 0 0 0 0 0 0 0 0 0 0 0 0 0 0 0 0 0 0 0 0 0 0 0 0 0 0 0 0 0 0 0 0 0 0 0
0 0 0 0 0 0 0 0 0 0 0 0 0 0 0 0 0 0 0 0 0 0 0 0 0 0 0 0 0 0 0 0 0 0 0 0 0 0 0 0 0 0 0 0
0 0 0 0 0 0 0 0 0 0 0 0 0 0 0 0 0 0 0 0 0 0 0 0 0 0 0 0 0 0 0 0 0 0 0 0 0 0 0 0 0 0 0 0
0 0 0 0 0 0 0 0 0 0 0 0 0 0 0 0 0 0 0 0 0 0 0 0 0 0 0 0 0 0 0 0 0 0 0 0 0 0 0 0 0 0 0 0
0 0 0 0 0 0 0 0 0 0 0 0 0 0 0 0 0 0 0 0 0 0 0 0 0 0 0 0 0 0 0 0 0 0 0 0 0 0 0 0 0 0 0 0
0 0 0 0 0 0 0 0 0 0 0 0 0 0 0 0 0 0 0 0 0 0 0 0 0 0 0 0 0 0 0 0 0 0 0 0 0 0 0 0 0 0 0 0
0 0 0 0 0 0 0 0 0 0 0 0 0 0 0 0 0 0 0 0 0 0 0 0 0 0 0 0 0 0 0 0 0 0 0 0 0 0 0 0 0 0 0 0
0 0 0 0 0 0 0 0 0 0 0 0 0 0 0 0 0 0 0 0 0 0 0 0 0 0 0 0 0 0 0 0 0 0 0 0 0 0 0 0 0 0 0 0
0 0 0 0 0 0 0 0 0 0 0 0 0 0 0 0 0 0 0 0 0 0 0 0 0 0 0 0 0 0 0 0 0 0 0 0 0 0 0 0 0 0 0 0
0 0 0 0 0 0 0 0 0 0 0 0 0 0 0 0 0 0 0 0 0 0 0 0 0 0 0 0 0 0 0 0 0 0 0 0 0 0 0 0 0 0 0 0
0 0 0 0 0 0 0 0 0 0 0 0 0 0 0 0 0 0 0 0 0 0 0 0 0 0 0 0 0 0 0 0 0 0 0 0 0 0 0 0 0 0 0 0
0 0 0 0 0 0 0 0 0 0 0 0 0 0 0 0 0 0 0 0 0 0 0 0 0 0 0 0 0 0 0 0 0 0 0 0 0 0 0 0 0 0 0 0
0 0 0 0 0 0 0 0 0 0 0 0 0 0 0 0 0 0 0 0 0 0 0 0 0 0 0 0 0 0 0 0 0 0 0 0 0 0 0 0 0 0 0 0
0 0 0 0 0 0 0 0 0 0 0 0 0 0 0 0 0 0 0 0 0 0 0 0 0 0 0 0 0 0 0 0 0 0 0 0 0 0 0 0 0 0 0 0
Wind_Speed
3 4 6 11 9 5 6 5 5 6 3 4 8 12 14 7 6 10 12 12 14 19 15 8 9 9 8 8 8 9 9 9 8 5 4 5 4 3 3 3 5 6 7 8
3 6 10 4 3 3 4 4 5 6 2 5 7 12 12 10 10 13 14 15 16 16 11 11 10 11 12 12 11 11 11 11 10 5 3 3 4 4 3 3 4 5 6 7
11 5 4 7 5 6 5 7 7 6 3 3 4 11 8 9 7 8 11 13 14 17 18 14 13 14 14 15 15 13 13 11 10 8 6 6 5 4 3 3 3 3 5 6
7 4 5 5 7 10 8 9 7 4 2 6 3 7 9 7 8 10 14 14 18 19 16 12 13 15 17 17 13 12 13 12 11 11 10 10 8 6 5 4 4 4 5 6
10 7 8 9 10 12 7 3 5 3 4 5 3 6 11 5 9 13 15 17 18 16 13 13 14 16 14 12 12 12 12 12 12 12 12 10 7 6 6 6 7 6 4 5
5 5 7 8 3 7 7 7 5 5 3 8 8 10 12 9 12 12 12 13 13 10 8 9 8 9 10 11 12 13 14 13 13 13 12 11 12 12 12 11 9 6 4 4
4 5 4 4 7 4 5 6 2 3 2 12 5 9 15 11 11 12 13 12 8 5 5 5 7 10 12 14 15 14 15 14 13 13 13 11 12 15 17 15 12 10 7 4
7 9 10 9 10 11 9 12 11 9 8 8 3 13 13 9 8 10 11 11 8 7 5 6 8 10 12 14 15 16 16 14 14 14 12 10 12 10 10 12 12 12 9 7
11 10 3 7 4 14 8 8 7 5 2 6 11 11 11 7 10 14 13 10 11 9 7 7 7 9 11 13 15 15 15 13 14 13 12 11 12 10 10 11 9 8 8 8
9 6 2 1 2 1 7 9 6 7 7 9 11 9 9 9 15 13 9 10 11 6 5 6 6 8 9 10 10 11 12 13 12 12 12 11 11 10 10 11 12 10 10 10
8 7 2 3 11 12 8 7 7 6 6 8 9 14 11 12 11 10 11 10 7 6 6 6 6 6 7 7 9 10 11 11 12 13 12 12 12 10 11 10 11 12 11 12
8 6 6 9 6 4 7 10 11 9 8 6 7 19 5 9 7 7 8 6 4 4 4 5 6 7 8 9 10 11 12 12 13 13 12 13 12 12 13 12 11 11 12 12
10 7 3 4 2 3 5 6 9 6 6 8 10 19 2 1 2 5 7 7 5 4 4 4 6 8 10 11 12 12 13 13 12 13 14 14 14 15 15 14 13 12 12 12
8 7 11 15 9 9 9 9 11 11 9 13 21 25 7 2 5 7 7 7 6 6 6 7 8 9 11 11 12 13 13 12 13 14 15 16 16 16 15 14 14 13 13 13
8 10 12 14 8 7 9 11 14 18 21 19 23 26 27 10 11 11 10 8 7 7 8 10 11 11 11 12 13 14 14 14 14 15 16 16 14 14 14 14 14 14 13 13
10 10 11 18 17 11 10 12 18 23 21 24 24 33 25 7 9 10 11 11 11 11 12 12 12 12 13 15 15 15 16 16 15 17 16 13 14 14 15 15 14 14 13 12
8 9 10 17 16 10 20 27 23 17 15 14 25 37 21 11 12 15 15 13 13 14 13 13 13 14 15 16 16 18 16 13 15 15 13 13 15 16 16 15 15 16 15 13
10 11 9 10 12 25 18 14 20 24 24 21 19 23 20 15 12 12 11 11 12 12 12 11 11 12 13 13 12 11 10 12 14 14 13 14 15 15 14 15 16 15 13 13
16 14 10 10 19 18 13 9 12 17 23 24 27 29 27 14 8 15 11 10 13 11 10 10 10 10 9 10 10 10 11 12 14 15 15 14 14 15 15 16 16 12 12 12
19 17 15 15 16 13 12 6 8 10 16 15 17 24 24 11 11 17 4 5 7 7 6 6 5 4 5 7 9 12 12 13 15 14 12 11 12 14 15 14 12 8 9 10
13 16 22 22 19 10 7 3 10 12 13 4 8 13 12 11 13 7 3 2 3 4 5 4 2 2 3 5 9 10 11 12 10 8 9 10 10 10 10 9 8 9 8 8
9 10 13 15 18 13 5 8 12 8 1 2 2 3 4 5 4 2 2 2 3 4 4 3 2 2 2 5 8 8 8 6 8 9 9 9 9 8 8 10 9 9 10 10
9 8 5 7 7 3 5 7 4 2 3 2 2 1 2 2 1 1 1 2 3 4 4 3 4 5 5 3 5 6 5 8 9 9 9 9 9 8 9 10 10 9 9 8
7 4 5 6 7 5 4 3 2 2 3 2 2 2 2 2 1 1 1 2 3 4 4 3 5 6 6 5 5 5 6 8 9 9 8 8 9 8 8 7 8 8 9 9
5 5 5 7 5 2 5 6 5 3 3 2 2 2 2 3 2 2 2 2 3 3 4 4 6 7 6 6 7 5 5 8 9 8 8 8 7 8 7 6 6 7 6 8
5 6 6 6 5 5 5 4 5 5 4 4 4 2 1 2 3 4 4 3 4 5 5 6 7 8 7 8 8 7 4 5 8 7 6 5 5 5 5 5 3 5 5 8
Wind_Direction
55 103 198 207 194 172 161 176 221 248 236 193 238 256 267 252 225 246 248 243 241 245 247 219 202 192 189 190 188 185 175 168 159 151 150 141 127 110 94 91 106 121 129 131
75 239 226 162 152 151 155 191 241 273 248 208 259 267 262 248 227 228 234 238 239 244 245 220 201 194 195 194 192 189 184 178 177 166 140 126 121 109 92 90 91 106 124 131
185 220 169 147 158 178 204 204 218 233 327 274 288 292 268 264 238 246 239 239 240 238 241 227 206 203 199 199 195 192 187 181 177 158 135 116 105 102 107 110 101 93 114 123
225 217 136 161 188 171 230 218 205 209 250 278 208 279 279 262 266 253 249 243 243 243 239 228 207 204 205 203 191 188 183 180 175 166 167 165 163 160 163 148 133 114 110 121
225 189 176 195 202 175 202 145 158 174 197 272 224 243 268 264 265 257 249 245 244 243 234 228 213 209 204 191 185 185 180 181 176 176 179 179 162 138 135 132 131 122 113 118
240 198 198 205 161 158 132 87 73 57 89 265 208 207 261 210 222 242 247 246 247 249 239 231 213 194 188 181 182 182 183 184 179 179 182 184 164 151 150 152 149 141 133 124
256 237 217 150 105 124 139 112 38 313 270 251 187 217 250 223 222 226 243 255 258 263 245 226 202 192 187 185 186 187 186 185 181 181 184 183 172 166 165 163 161 158 156 156
200 247 204 188 170 166 186 163 178 205 229 269 219 234 251 244 254 260 259 266 280 270 249 232 212 198 192 189 188 189 190 186 181 182 183 178 173 175 171 169 165 168 167 160
194 237 227 200 176 149 168 214 176 149 241 281 260 263 290 267 263 253 253 261 264 260 248 235 216 200 193 191 192 192 190 184 182 182 177 176 177 178 172 169 163 162 156 152
172 226 259 154 117 246 159 152 131 166 203 251 268 250 242 226 232 240 245 246 253 254 242 229 213 202 195 191 188 188 189 186 178 178 178 178 179 177 171 168 168 163 158 154
177 199 219 156 194 189 153 173 178 172 180 189 270 265 208 209 216 222 232 234 244 244 237 223 208 195 186 180 181 186 186 179 179 180 178 175 177 173 170 175 173 167 161 160
187 168 224 228 229 209 198 189 164 177 216 206 240 266 179 206 219 221 239 247 249 241 231 210 194 183 184 186 188 192 191 187 184 179 177 177 175 174 176 178 174 169 167 167
157 168 218 296 244 199 217 208 197 186 162 195 224 264 48 69 260 246 248 256 254 242 221 200 192 196 198 197 197 197 197 192 183 178 178 179 180 181 182 180 174 173 170 168
165 176 202 218 207 178 199 210 196 188 213 232 235 255 246 234 270 270 257 250 238 228 218 210 211 211 208 204 202 201 200 192 184 182 184 186 187 186 183 178 177 177 174 173
175 208 225 243 228 186 197 205 203 210 220 230 246 253 254 212 232 246 252 252 242 235 227 221 220 216 210 208 207 205 202 194 187 187 192 193 185 182 179 178 178 177 178 179
194 212 218 243 239 219 227 226 218 221 228 237 252 259 258 225 225 242 246 246 247 243 237 230 224 217 213 212 210 205 204 196 189 193 196 186 179 180 181 180 177 177 178 176
200 205 215 243 239 218 234 230 224 222 218 215 238 253 264 244 232 238 245 243 242 243 241 235 226 220 217 214 207 206 203 188 190 195 190 183 180 182 182 178 177 181 181 176
217 214 225 244 235 238 240 227 218 225 232 225 236 253 255 242 239 243 241 242 247 245 243 240 233 228 222 214 205 198 182 183 190 193 190 185 182 181 177 178 183 183 179 181
222 224 232 236 245 252 256 232 196 211 238 230 233 248 258 257 279 268 244 232 245 250 246 243 238 233 222 204 190 175 178 182 188 194 193 186 180 178 178 183 185 181 176 181
216 219 231 236 243 238 241 227 179 170 243 240 221 239 251 249 252 266 271 247 261 272 271 266 260 236 216 194 167 170 179 183 194 194 186 177 177 179 183 183 177 170 173 177
204 213 225 236 245 246 246 178 132 180 236 245 207 227 239 227 234 269 324 327 317 309 307 303 282 238 211 164 157 170 178 192 186 165 159 164 171 173 170 164 158 156 157 159
209 218 221 228 238 241 193 154 182 212 199 176 197 220 225 237 268 302 330 337 344 343 344 352 18 33 63 134 151 164 178 163 141 144 150 155 157 155 153 154 153 155 159 165
216 213 216 220 235 244 181 202 217 180 195 202 194 209 204 227 256 300 7 9 7 10 10 21 67 67 56 82 130 145 142 131 132 137 144 147 147 149 154 157 158 159 167 174
235 211 214 237 245 239 235 240 237 204 200 196 187 185 186 197 197 139 70 30 25 23 24 44 75 76 61 56 74 101 119 126 129 135 137 141 146 148 151 155 161 168 176 183
225 191 211 235 244 271 257 234 221 204 193 186 176 173 170 164 152 134 108 68 51 43 38 56 74 77 67 61 63 71 102 122 126 131 135 141 146 151 155 157 170 176 184 191
203 201 210 236 221 207 231 216 194 193 206 198 178 151 89 128 135 116 96 76 71 66 62 68 72 77 70 65 57 42 53 108 124 128 134 138 140 142 145 146 135 178 172 195